TimePST,TemperatureF,Dew PointF,Humidity,Sea Level PressureIn,VisibilityMPH,Wind Direction,Wind SpeedMPH,Gust SpeedMPH,PrecipitationIn,Events,Conditions,WindDirDegrees,DateUTC
12:00 AM,55.0,48.0,77,30.12,-9999.0,ESE,3.5,-,N/A,,Unknown,120,2012-11-04 07:00:00
1:00 AM,53.4,48.6,84,30.15,-9999.0,SW,1.2,-,N/A,,Unknown,220,2012-11-04 08:00:00
1:00 AM,52.5,48.6,86,30.16,-9999.0,ESE,1.2,-,N/A,,Unknown,120,2012-11-04 09:00:00
2:00 AM,53.2,48.2,83,30.17,-9999.0,South,2.3,-,N/A,,Unknown,170,2012-11-04 10:00:00
3:00 AM,51.4,48.0,88,30.18,-9999.0,ESE,1.2,-,N/A,,Unknown,120,2012-11-04 11:00:00
4:00 AM,51,48,87,30.20,,Calm,Calm,,,,,,2012-11-04 12:00:00
4:00 AM,51.3,48.4,90,30.20,-9999.0,Calm,Calm,-,N/A,,Unknown,0,2012-11-04 12:00:00
5:00 AM,50.7,48.4,92,30.21,-9999.0,ESE,1.2,-,N/A,,Unknown,110,2012-11-04 13:00:00
6:00 AM,50.2,48.2,93,30.22,-9999.0,SW,1.2,-,N/A,,Unknown,230,2012-11-04 14:00:00
7:00 AM,50.0,48.2,94,30.23,-9999.0,SSE,1.2,-,N/A,,Unknown,150,2012-11-04 15:00:00
8:00 AM,52.3,48.0,85,30.24,-9999.0,South,3.5,-,N/A,,Unknown,170,2012-11-04 16:00:00
9:00 AM,54.3,48.4,80,30.25,-9999.0,SE,4.6,-,N/A,,Unknown,130,2012-11-04 17:00:00
10:00 AM,54,49,76,30.27,,South,5.8,,,,,170,2012-11-04 18:00:00
10:00 AM,53.8,48.6,82,30.27,-9999.0,South,5.8,-,N/A,,Unknown,170,2012-11-04 18:00:00
11:00 AM,55.2,48.9,79,30.26,-9999.0,SSE,5.8,-,N/A,,Unknown,160,2012-11-04 19:00:00
12:00 PM,57.0,48.6,73,30.25,-9999.0,SSE,5.8,-,N/A,,Unknown,160,2012-11-04 20:00:00
1:00 PM,57.6,47.8,70,30.25,-9999.0,SSE,5.8,-,N/A,,Unknown,160,2012-11-04 21:00:00
2:00 PM,56.7,48.6,74,30.24,-9999.0,South,8.1,-,N/A,,Unknown,170,2012-11-04 22:00:00
3:00 PM,57.4,48.2,71,30.24,-9999.0,SSE,8.1,-,N/A,,Unknown,160,2012-11-04 23:00:00
4:00 PM,56,49,69,30.23,,SSE,3.5,,,,,150,2012-11-05 00:00:00
4:00 PM,56.5,48.6,75,30.23,-9999.0,SSE,3.5,-,N/A,,Unknown,150,2012-11-05 00:00:00
5:00 PM,57.7,48.4,71,30.22,-9999.0,SSE,6.9,-,N/A,,Unknown,150,2012-11-05 01:00:00
6:00 PM,56.7,49.3,76,30.24,-9999.0,SSE,4.6,-,N/A,,Unknown,160,2012-11-05 02:00:00
7:00 PM,56.5,49.3,77,30.23,-9999.0,SSE,4.6,-,N/A,,Unknown,160,2012-11-05 03:00:00
8:00 PM,58.5,50.0,73,30.21,-9999.0,SE,5.8,-,N/A,,Unknown,140,2012-11-05 04:00:00
9:00 PM,59.0,50.7,74,30.17,-9999.0,SE,8.1,-,N/A,,Unknown,130,2012-11-05 05:00:00
10:00 PM,59,51,67,30.18,,SE,6.9,,,,,140,2012-11-05 06:00:00
10:00 PM,58.8,51.1,75,30.18,-9999.0,SE,6.9,-,N/A,,Unknown,140,2012-11-05 06:00:00